If you wish to contribute or participate in the discussions about articles you are invited to join SKYbrary as a registered user

 Actions

Tottori Airport

From SKYbrary Wiki

RJOR
Airport
ICAO: RJOR – IATA: TTJ
Summary
Name Tottori Airport
Region Asia and Pacific
Territory Japan JP.gif
Location Tottori, Tottori Prefecture
Serving Tottori
Elevation 14.63 m
48 ft14.63 m
Coordinates 35° 31' 35.62" N, 134° 10' 4.55" E
Runways
Designator Length Width Surface ROPS
10/28 2000 m6,561.68 ft
46 m150.919 ft
ASP yes/yes


METAR
Observation RJOR 230800Z 07005KT 9999 FEW030 SCT150 BKN170 19/14 Q1017
Station Tottori Airport
Date/Time 23 October 2019 08:00:00
Wind direction 70°
Wind speed 05 kts
Lowest cloud amount few clouds
Temperature 19°C
Dew point 14°C
Humidity 72%
QNH 1017 hPa
Weather condition n/a

Tottori Airport is an airport serving the city of Tottori, Tottori Prefecture, Japan.

Climatology

Humid Sub-tropical climate (Köppen climate classification Cfa)

Maps

Terrain

Loading map...

Airport Layout

Loading map...


Accidents & Serious Incidents at or in vicinity of RJOR

None on SKYbrary